Location: Fort Wayne
(41.1310°N, 85.1290°W)
Time: 16:56:56
(UTC-04:00)

Helios 1B - Visible Passes

Search period start: 26 April 2015 00:00
Search period end: 06 May 2015 00:00
Orbit: 624 x 625 km, 98.1° (Epoch: 26 April)

Date Brightness Start Highest point End Pass type
(mag) Time Alt. Az. Time Alt. Az. Time Alt. Az.
26 Apr 7.1 01:10:17 17° NW 01:10:17 17° NW 01:11:28 10° NNW visible
26 Apr 6.5 23:51:55 23° NNE 23:51:55 23° NNE 23:53:59 10° N visible
27 Apr 7.4 01:29:11 13° NW 01:29:11 13° NW 01:29:47 10° NW visible
28 Apr 6.4 00:10:49 27° NNE 00:10:49 27° NNE 00:13:01 10° N visible
29 Apr 6.4 00:29:43 29° N 00:29:43 29° N 00:31:53 10° N visible
29 Apr 7.0 23:11:21 12° NE 23:11:21 12° NE 23:12:36 10° NE visible
30 Apr 6.6 00:48:37 26° NNW 00:48:37 26° NNW 00:50:37 10° NNW visible
30 Apr 6.6 23:30:15 18° NE 23:30:15 18° NE 23:32:19 10° NNE visible
01 May 6.8 01:07:30 21° NW 01:07:30 21° NW 01:09:10 10° NNW visible
01 May 6.3 23:49:08 25° NE 23:49:08 25° NE 23:51:34 10° N visible
02 May 7.1 01:26:24 15° NW 01:26:24 15° NW 01:27:31 10° NW visible
03 May 6.1 00:08:01 31° NNE 00:08:01 31° NNE 00:10:36 10° N visible
03 May 7.4 01:45:17 11° WNW 01:45:17 11° WNW 01:45:28 10° NW visible
04 May 6.0 00:26:54 35° N 00:26:54 35° N 00:29:28 10° N visible
04 May 6.9 23:08:31 12° ENE 23:08:31 12° ENE 23:09:55 10° NE visible
05 May 6.2 00:45:47 32° NNW 00:45:47 32° NNW 00:48:12 10° NNW visible
05 May 6.6 23:27:24 18° NE 23:27:24 18° NE 23:29:46 10° NNE visible
